DW6004 Weather Reports


time (UTC)temp
C
wind
direction
speed
KPH
gust
KPH
rain 1hr
cm
rain 24hr
cm
rain mn
cm
humidity
%
barometer
mb
20260504045503 7 234 4.8 11.3 0.00 0.00 0.00 57 1011.5
20260504045003 7 232 4.8 9.7 0.00 0.00 0.00 58 1011.5
20260504044504 7 231 3.2 6.4 0.00 0.00 0.00 59 1011.4
20260504044003 7 229 3.2 6.4 0.00 0.00 0.00 59 1011.5
20260504043504 6 226 3.2 6.4 0.00 0.00 0.00 60 1011.4
20260504043004 6 225 3.2 6.4 0.00 0.00 0.00 61 1011.3
20260504042504 6 230 3.2 6.4 0.00 0.00 0.00 61 1011.4
20260504042003 6 235 3.2 4.8 0.00 0.00 0.00 61 1011.2
20260504041503 6 235 3.2 6.4 0.00 0.00 0.00 62 1011.1
20260504041003 6 235 1.6 6.4 0.00 0.00 0.00 62 1011.3
20260504040503 5 233 1.6 4.8 0.00 0.00 0.00 61 1011.0
20260504040003 5 234 1.6 4.8 0.00 0.00 0.00 61 1011.4
20260504035503 5 235 1.6 3.2 0.00 0.00 0.00 61 1011.1
20260504035003 5 235 1.6 3.2 0.00 0.00 0.00 61 1011.2
20260504034504 5 235 0.0 3.2 0.00 0.00 0.00 60 1011.1
20260504034024 6 235 0.0 3.2 0.00 0.00 0.00 60 1011.1
20260504033503 6 235 0.0 3.2 0.00 0.00 0.00 59 1011.0
20260504033025 6 236 0.0 1.6 0.00 0.00 0.00 59 1011.1
20260504032504 6 236 0.0 1.6 0.00 0.00 0.00 60 1011.2
20260504032003 6 236 0.0 1.6 0.00 0.00 0.00 59 1011.2
20260504031503 6 236 0.0 3.2 0.00 0.00 0.00 59 1011.1
20260504031004 6 236 0.0 3.2 0.00 0.00 0.00 59 1011.1
20260504030524 6 0 0.0 0.0 0.00 0.00 0.00 58 1011.1
20260504030003 6 0 0.0 0.0 0.00 0.00 0.00 58 1011.4
20260504025504 6 0 0.0 0.0 0.00 0.00 0.00 57 1011.2
20260504025024 6 0 0.0 0.0 0.00 0.00 0.00 56 1011.2
20260504024503 6 236 0.0 1.6 0.00 0.00 0.00 56 1010.9
20260504024003 6 238 0.0 1.6 0.00 0.00 0.00 55 1011.0
20260504023503 7 239 0.0 1.6 0.00 0.00 0.00 53 1011.2
20260504023003 7 0 0.0 0.0 0.00 0.00 0.00 53 1011.2
20260504022524 7 0 0.0 0.0 0.00 0.00 0.00 52 1011.2
20260504022024 7 0 0.0 0.0 0.00 0.00 0.00 51 1011.3
20260504021503 7 0 0.0 0.0 0.00 0.00 0.00 50 1011.2
20260504021003 7 0 0.0 0.0 0.00 0.00 0.00 50 1011.1
20260504020524 8 0 0.0 0.0 0.00 0.00 0.00 49 1011.1
20260504020004 8 0 0.0 0.0 0.00 0.00 0.00 48 1011.2
20260504015504 8 0 0.0 0.0 0.00 0.00 0.00 47 1011.1
20260504015004 8 0 0.0 0.0 0.00 0.00 0.00 46 1011.0
20260504014504 9 0 0.0 0.0 0.00 0.00 0.00 46 1010.9
20260504014003 9 0 0.0 0.0 0.00 0.00 0.00 45 1011.1
20260504013503 10 0 0.0 0.0 0.00 0.00 0.00 44 1011.0
20260504013004 10 0 0.0 0.0 0.00 0.00 0.00 43 1010.8
20260504012503 10 0 0.0 0.0 0.00 0.00 0.00 42 1010.9
20260504012024 11 0 0.0 0.0 0.00 0.00 0.00 42 1010.9
20260504011504 11 239 0.0 1.6 0.00 0.00 0.00 41 1010.8
20260504011003 11 239 0.0 1.6 0.00 0.00 0.00 40 1010.8
20260504010503 11 239 0.0 1.6 0.00 0.00 0.00 39 1010.5
20260504010004 12 238 0.0 1.6 0.00 0.00 0.00 39 1010.7
20260504005504 12 238 0.0 3.2 0.00 0.00 0.00 38 1010.6
20260504005003 12 241 1.6 3.2 0.00 0.00 0.00 38 1010.5
20260504004504 12 250 1.6 6.4 0.00 0.00 0.00 37 1010.4
20260504004024 13 258 1.6 6.4 0.00 0.00 0.00 36 1010.5
20260504003503 13 260 1.6 11.3 0.00 0.00 0.00 36 1010.3
20260504003004 13 257 3.2 11.3 0.00 0.00 0.00 35 1010.3
20260504002525 13 257 1.6 6.4 0.00 0.00 0.00 35 1010.3
20260504002003 13 286 1.6 4.8 0.00 0.00 0.00 34 1010.1
20260504001503 13 298 1.6 4.8 0.00 0.00 0.00 34 1009.9
20260504001003 14 275 3.2 11.3 0.00 0.00 0.00 34 1009.9
20260504000503 14 262 3.2 11.3 0.00 0.00 0.00 33 1010.0
20260504000025 14 260 3.2 12.9 0.00 0.00 0.00 33 1009.8
20260503235504 14 265 4.8 14.5 0.00 0.00 0.00 32 1009.8
20260503235003 15 268 6.4 17.7 0.00 0.00 0.00 32 1009.7
20260503234503 15 270 6.4 17.7 0.00 0.00 0.00 31 1009.6
20260503234004 15 272 4.8 11.3 0.00 0.00 0.00 31 1009.9
20260503233503 15 263 4.8 14.5 0.00 0.00 0.00 32 1009.8
20260503233003 15 261 6.4 16.1 0.00 0.00 0.00 30 1009.3
20260503232525 15 266 6.4 16.1 0.00 0.00 0.00 30 1009.3
20260503232003 15 283 4.8 12.9 0.00 0.00 0.00 31 1009.2
20260503231504 15 281 4.8 14.5 0.00 0.00 0.00 29 1009.1
20260503231004 15 277 4.8 14.5 0.00 0.00 0.00 30 1009.1
20260503230503 15 296 6.4 22.5 0.00 0.00 0.00 30 1009.3
20260503230004 15 295 9.7 24.1 0.00 0.00 0.00 29 1009.3
20260503225504 15 277 9.7 24.1 0.00 0.00 0.00 29 1009.4
20260503225004 16 275 9.7 25.7 0.00 0.00 0.00 28 1009.1
20260503224503 16 288 11.3 25.7 0.00 0.00 0.00 28 1009.3
20260503224004 16 293 9.7 25.7 0.00 0.00 0.00 28 1008.9
20260503223503 16 290 8.0 25.7 0.00 0.00 0.00 27 1009.1
20260503223003 16 273 9.7 33.8 0.00 0.00 0.00 27 1009.2
20260503222524 16 262 11.3 33.8 0.00 0.00 0.00 27 1009.0
20260503222004 16 272 11.3 25.7 0.00 0.00 0.00 27 1009.1
20260503221503 16 281 11.3 29.0 0.00 0.00 0.00 27 1009.4
20260503221004 16 281 9.7 29.0 0.00 0.00 0.00 28 1009.2
20260503220503 16 279 9.7 30.6 0.00 0.00 0.00 27 1009.1
20260503220003 16 269 12.9 30.6 0.00 0.00 0.00 28 1009.0
20260503215503 16 265 12.9 38.6 0.00 0.00 0.00 27 1009.1
20260503215024 16 265 12.9 38.6 0.00 0.00 0.00 27 1009.3
20260503214504 16 266 12.9 30.6 0.00 0.00 0.00 27 1009.2
20260503214004 16 278 9.7 27.4 0.00 0.00 0.00 28 1009.1
20260503213503 16 282 8.0 22.5 0.00 0.00 0.00 27 1009.2
20260503213004 16 277 9.7 25.7 0.00 0.00 0.00 27 1009.0
20260503212504 16 294 11.3 27.4 0.00 0.00 0.00 27 1009.3
20260503212004 16 281 9.7 27.4 0.00 0.00 0.00 28 1009.1
20260503211503 16 261 11.3 30.6 0.00 0.00 0.00 28 1009.0
20260503211024 16 259 14.5 35.4 0.00 0.00 0.00 29 1009.2
20260503210504 16 258 14.5 37.0 0.00 0.00 0.00 27 1009.0
20260503210003 16 254 14.5 37.0 0.00 0.00 0.00 27 1008.9
20260503205503 16 275 14.5 41.8 0.00 0.00 0.00 28 1009.0
20260503205003 15 281 12.9 41.8 0.00 0.00 0.00 28 1008.8
20260503204504 15 269 12.9 29.0 0.00 0.00 0.00 29 1009.2
20260503204025 15 267 12.9 29.0 0.00 0.00 0.00 28 1009.3
20260503203504 15 259 14.5 35.4 0.00 0.00 0.00 29 1009.3
20260503203003 15 261 16.1 41.8 0.00 0.00 0.00 30 1009.0
20260503202504 15 271 12.9 41.8 0.00 0.00 0.00 29 1009.3
20260503202003 15 277 8.0 30.6 0.00 0.00 0.00 29 1009.0
20260503201504 15 282 11.3 40.2 0.00 0.00 0.00 29 1009.2
20260503201003 15 270 12.9 40.2 0.00 0.00 0.00 29 1009.2
20260503200504 15 259 14.5 33.8 0.00 0.00 0.00 31 1009.4
20260503200004 15 266 16.1 30.6 0.00 0.00 0.00 30 1009.1
20260503195504 15 278 12.9 30.6 0.00 0.00 0.00 29 1009.4
20260503195003 15 293 11.3 29.0 0.00 0.00 0.00 29 1009.3
20260503194504 15 291 11.3 30.6 0.00 0.00 0.00 31 1009.4
20260503194003 15 267 11.3 30.6 0.00 0.00 0.00 30 1009.3
20260503193524 15 247 12.9 33.8 0.00 0.00 0.00 33 1009.5
20260503193003 15 260 12.9 40.2 0.00 0.00 0.00 31 1009.6
20260503192503 14 272 12.9 40.2 0.00 0.00 0.00 31 1009.5
20260503192004 14 262 11.3 29.0 0.00 0.00 0.00 32 1009.7
20260503191504 14 270 11.3 27.4 0.00 0.00 0.00 32 1009.7
20260503191003 14 303 12.9 33.8 0.00 0.00 0.00 31 1009.7
20260503190503 14 304 11.3 33.8 0.00 0.00 0.00 33 1009.9
20260503190004 14 276 11.3 53.1 0.00 0.00 0.00 31 1009.9
20260503185504 14 260 14.5 53.1 0.00 0.00 0.00 32 1010.0
20260503185004 14 261 12.9 35.4 0.00 0.00 0.00 33 1009.8
20260503184503 14 269 12.9 35.4 0.00 0.00 0.00 33 1010.0
20260503184003 14 263 12.9 35.4 0.00 0.00 0.00 35 1009.9
20260503183503 14 269 11.3 35.4 0.00 0.00 0.00 35 1009.8
20260503183003 13 281 9.7 35.4 0.00 0.00 0.00 37 1009.9
20260503182503 13 262 12.9 37.0 0.00 0.00 0.00 34 1010.0
20260503182005 13 258 12.9 37.0 0.00 0.00 0.00 36 1010.1
20260503181505 13 264 11.3 37.0 0.00 0.00 0.00 36 1010.2
20260503181003 13 266 11.3 37.0 0.00 0.00 0.00 36 1010.3
20260503180503 13 288 9.7 25.7 0.00 0.00 0.00 37 1010.4
20260503180004 13 294 9.7 25.7 0.00 0.00 0.00 38 1010.0
20260503175504 12 296 11.3 25.7 0.00 0.00 0.00 39 1010.4
20260503175004 12 286 11.3 25.7 0.00 0.00 0.00 39 1010.3
20260503174503 12 273 9.7 25.7 0.00 0.00 0.00 38 1010.3
20260503174003 12 278 12.9 35.4 0.00 0.00 0.00 38 1010.3
20260503173504 12 271 14.5 38.6 0.00 0.00 0.00 38 1010.4
20260503173003 12 261 14.5 38.6 0.00 0.00 0.00 38 1010.3
20260503172503 12 275 12.9 24.1 0.00 0.00 0.00 37 1010.4
20260503172004 12 280 12.9 30.6 0.00 0.00 0.00 42 1010.3
20260503171503 12 263 14.5 30.6 0.00 0.00 0.00 40 1010.5
20260503171003 12 271 14.5 37.0 0.00 0.00 0.00 38 1010.5
20260503170503 12 291 14.5 38.6 0.00 0.00 0.00 36 1010.6
20260503151003 11 288 8.0 20.9 0.00 0.00 0.00 38 1010.7
20260503150503 11 292 8.0 22.5 0.00 0.00 0.00 36 1010.7
20260503131003 10 314 8.0 24.1 0.00 0.00 0.00 51 1010.8
20260503130504 10 314 9.7 24.1 0.00 0.00 0.00 50 1011.0
20260503110503 6 310 6.4 17.7 0.00 0.00 0.00 59 1010.8
20260503090503 7 320 6.4 17.7 0.00 0.03 0.00 54 1009.6
20260503081503 6 335 4.8 20.9 0.00 0.03 0.00 59 1009.6
20260503081003 6 324 3.2 11.3 0.00 0.03 0.00 59 1009.6
20260503080524 6 327 3.2 9.7 0.00 0.03 0.00 58 1009.4
20260503072503 7 343 3.2 6.4 0.00 0.03 0.00 54 1009.6
20260503072003 7 341 3.2 6.4 0.00 0.03 0.00 53 1009.5
20260503071503 7 345 3.2 6.4 0.00 0.03 0.00 53 1009.3
20260503071003 7 348 3.2 6.4 0.00 0.03 0.00 53 1009.5
20260503070504 7 339 3.2 9.7 0.00 0.03 0.00 52 1009.5
20260503055003 9 333 4.8 12.9 0.00 0.03 0.00 46 1009.8
20260503054503 9 333 4.8 12.9 0.00 0.03 0.00 46 1009.8
20260503054004 9 332 4.8 14.5 0.00 0.03 0.00 46 1009.7
20260503053503 9 327 4.8 14.5 0.00 0.03 0.00 45 1009.7
20260503053024 9 329 4.8 11.3 0.00 0.03 0.00 45 1009.9
20260503052525 10 322 4.8 11.3 0.00 0.03 0.00 45 1010.1
20260503052003 10 323 4.8 11.3 0.00 0.03 0.00 44 1010.2
20260503051504 10 328 4.8 11.3 0.00 0.03 0.00 44 1009.9
20260503051003 10 331 3.2 11.3 0.00 0.03 0.00 44 1010.1
20260503050504 10 329 4.8 12.9 0.00 0.03 0.00 44 1010.3
20260503050024 10 331 6.4 12.9 0.00 0.03 0.00 43 1010.1